Location: Newark
(12.4436°N, 0.6167°W)
Time: 08:14:46
(UTC+00:00)

Vanguard 1 - Pass Details

Date: 14 December 2019
Orbit: 651 x 3832 km, 34.2° (Epoch: 20 January)

Event Time Altitude Azimuth Distance (km) Brightness Sun altitude
Rises 11:44:06 0° 296° (WNW) 6,103 13.9 54.2°
Reaches altitude 10° 11:49:09 10° 290° (WNW) 4,540 13.4 54.3°
Maximum altitude 11:59:14 39° 226° (SW) 1,873 12.6 54.3°
Drops below altitude 10° 12:05:10 10° 157° (SSE) 2,672 13.0 54.3°
Sets 12:07:24 0° 148° (SSE) 3,396 13.3 54.3°
